Regional Weather Roundup
Issued by NWS Albany, NY

Home | Current Version | Previous Version | Graphics & Text | Print | Product List | Glossary Off
Versions: 1 2 3 4 5 6 7 8 9 10 11 12 13 14 15 16 17 18 19 20 21 22 23 24 25 26 27 28 29 30 31 32 33 34 35 36 37 38 39 40 41 42 43 44 45 46 47 48 49 50

760
ASUS41 KALY 190110
RWRALY

NEW YORK STATE HOURLY WEATHER ROUNDUP
NATIONAL WEATHER SERVICE ALBANY NY
800 PM EST SAT NOV 18 2017

NOTE: "FAIR" INDICATES FEW OR NO CLOUDS BELOW 12,000 FEET WITH NO
SIGNIFICANT WEATHER AND/OR NO OBSTRUCTIONS TO VISIBILITY.

NYZ032-033-038>043-046>054-057>066-NYZ062>081-082-084-190200-
EAST


CITY           SKY/WX    TMP DP  RH WIND       PRES   REMARKS
ALBANY         LGT RAIN  42  38  85 S10       29.50F
GLENS FALLS    LGT RAIN  33  31  92 CALM      29.50F
POUGHKEEPSIE   CLOUDY    44  40  85 SE5       29.54F
NEWBURGH       CLOUDY    45  43  93 VRB5      29.55F
MONTGOMERY     CLOUDY    39  38  96 CALM      29.53F FOG
WHITE PLAINS   CLOUDY    47  44  90 S7        29.57F
ISLIP          LGT RAIN  52  47  83 SW16G30   29.60F
NEW YORK CITY  LGT RAIN  51  45  79 S10       29.58F
$$

NYZ005>009-017-018-044>046-055-056-190200-
CENTRAL


CITY           SKY/WX    TMP DP  RH WIND       PRES   REMARKS
FULTON         LGT RAIN  42  40  92 SE8       29.32F FOG
SYRACUSE       LGT RAIN  42  41  96 E7        29.33F
ROME           RAIN      36  35  96 SE9       29.41F FOG     WCI  29
ELMIRA         CLOUDY    45  41  86 S3        29.35F
BINGHAMTON     LGT RAIN  40  39  97 S9G18     29.39F WCI  34
MONTICELLO     LGT RAIN  39  39 100 CALM      29.53S FOG
$$

NYZ026>034-041>043-087-190200-
NORTH


CITY           SKY/WX    TMP DP  RH WIND       PRES   REMARKS
WATERTOWN      LGT RAIN  42  41  96 SE6       29.31F
FORT DRUM      NOT AVBL
OGDENSBURG     HVY RAIN  35  31  85 E3        29.37F
MASSENA        CLOUDY    35  29  78 E7        29.42F WCI  29
SARANAC LAKE   RAIN      35  34  96 CALM      29.36F FOG
PLATTSBURGH    CLOUDY    41  29  62 S9        29.44F
$$

NYZ001>004-010>016-019>021-085-190200-
WEST


CITY           SKY/WX    TMP DP  RH WIND       PRES   REMARKS
NIAGARA FALLS  LGT RAIN  48  45  89 E7        29.18F FOG
BUFFALO        RAIN      47  46  97 NE6       29.18F FOG
DUNKIRK        LGT RAIN  54  49  83 SW13      29.16F
JAMESTOWN      LGT RAIN  50  48  93 S16G22    29.20F
WELLSVILLE     LGT RAIN  44  40  85 VRB7G23   29.30F
ROCHESTER      LGT RAIN  45  45 100 SE8       29.23F
PENN YAN       CLOUDY    45  39  79 S14G23    29.28F
$$

             KEY
       WCI = WIND CHILL INDEX
       VSB = VISIBILITY
       HX  = HEAT INDEX
$$




USA.gov is the U.S. government's official web portal to all federal, state and local government web resources and services.